ソーホー彗星

P/2003 T12 = P/2012 A3 ( SOHO ) 2024

English version
Home page
Updated on May 13, 2024

---------------------------------------------------------------------

・ プロフィール

・ 軌道要素

Epoch 2020 Apr. 21.0 TT = JDT 2458960.5
T 2020 May 6.86248 TT                                   MPCW
q   0.5958177            (2000.0)            P               Q
n   0.23699855     Peri.  219.78031     +0.82446895     -0.56561848
a   2.5860619      Node   174.57194     +0.55557956     +0.80293568
e   0.7696042      Incl.   11.01534     +0.10762110     +0.18806924
P   4.16
From 333 observations 2012 Jan. 13-2016 Feb. 22, mean residual 4".8.

・ 星図

・ 光度変化

        m1 = 20.5 + 5 logΔ + 25.0 log r

---------------------------------------------------------------------

軌道要素はM.P.E.C. 2016-E131に掲載されたものです。
星図はステラナビゲータ Ver.11 (アストロアーツ) で作成したものです。
光度グラフはComet for Windowsで作成したものです。

---------------------------------------------------------------------

Copyright(C) Seiichi Yoshida (comet@aerith.net). All rights reserved.